Location: Unspecified
(42.3650°N, 71.1030°W)
Time: 22:09:36
(UTC+00:00)

Altair - Visible Passes

Search period start: 23 June 2024 00:00
Search period end: 03 July 2024 00:00
Orbit: 1502 x 1682 km, 47.2° (Epoch: 22 June)

Date Brightness Start Highest point End Pass type
(mag) Time Alt. Az. Time Alt. Az. Time Alt. Az.
23 Jun 7.9 04:56:12 36° SSE 04:57:47 38° SE 05:06:07 10° ENE visible
23 Jun 7.4 06:54:09 17° WSW 07:01:48 89° NNW 07:11:22 10° ENE visible
24 Jun 7.9 04:31:43 34° SE 04:32:41 35° SE 04:40:48 10° ENE visible
24 Jun 7.4 06:29:40 20° WSW 06:36:35 87° SSE 06:46:07 10° ENE visible
24 Jun 7.9 08:32:35 10° W 08:41:51 66° N 08:51:29 10° E visible
25 Jun 8.0 04:07:08 32° SE 04:07:36 32° SE 04:15:26 10° ENE visible
25 Jun 7.4 06:05:05 24° WSW 06:11:23 84° SSE 06:20:52 10° ENE visible
25 Jun 7.9 08:07:19 10° W 08:16:35 66° N 08:26:11 10° ENE visible
26 Jun 8.1 03:42:25 29° SE 03:42:32 29° SE 03:50:04 10° ENE visible
26 Jun 7.3 05:40:22 26° SW 05:46:12 80° SSE 05:55:37 10° ENE visible
26 Jun 7.8 07:42:04 10° W 07:51:19 67° N 08:00:52 10° ENE visible
27 Jun 8.2 03:17:33 26° SE 03:17:33 26° SE 03:24:40 10° ENE visible
27 Jun 7.3 05:15:28 28° SW 05:21:00 76° SSE 05:30:23 10° ENE visible
27 Jun 7.8 07:16:49 10° W 07:26:02 68° N 07:35:34 10° ENE visible
28 Jun 8.3 02:52:25 24° SE 02:52:25 24° SE 02:59:14 10° E visible
28 Jun 7.3 04:50:18 27° SW 04:55:51 72° SSE 05:05:08 10° ENE visible
28 Jun 7.7 06:51:33 10° W 07:00:46 69° N 07:10:16 10° ENE visible
29 Jun 8.3 02:26:48 21° SE 02:27:20 22° SE 02:33:46 10° E visible
29 Jun 7.3 04:24:37 24° SW 04:30:41 67° SE 04:39:54 10° ENE visible
29 Jun 7.7 06:26:18 10° W 06:35:30 70° N 06:45:00 10° ENE visible
29 Jun 7.9 08:31:42 10° WNW 08:41:03 72° NNE 08:50:44 10° E visible
30 Jun 8.4 01:59:54 17° SE 02:02:18 19° SE 02:08:13 10° E visible
30 Jun 7.3 03:57:28 14° SW 04:05:31 63° SE 04:14:39 10° ENE visible
30 Jun 7.6 06:01:04 10° W 06:10:15 71° NNW 06:19:42 10° ENE visible
30 Jun 7.8 08:06:29 10° WNW 08:15:47 70° NNE 08:25:25 10° E visible
01 Jul 8.5 01:31:52 10° SSE 01:37:14 17° SE 01:42:36 10° E visible
01 Jul 7.4 03:31:28 10° SW 03:40:23 59° SE 03:49:24 10° ENE visible
01 Jul 7.6 05:35:49 10° W 05:45:00 73° NNW 05:54:26 10° ENE visible
01 Jul 7.8 07:41:15 10° WNW 07:50:31 69° N 08:00:05 10° E visible
02 Jul 8.6 01:07:31 10° SSE 01:12:12 15° SE 01:16:52 10° E visible
02 Jul 7.4 03:06:24 10° SW 03:15:15 55° SE 03:24:09 10° ENE visible
02 Jul 7.5 05:10:34 10° WSW 05:19:46 75° NNW 05:29:10 10° ENE visible
02 Jul 7.8 07:16:01 10° WNW 07:25:15 68° N 07:34:47 10° E visible
